Location: Derby
(52.9213°N, 1.4761°W)
Time: 17:30:08
(UTC+01:00)

Tiros 1 - Pass Details

Date: 25 May 2025
Orbit: 620 x 651 km, 48.4° (Epoch: 13 June)

Event Time Altitude Azimuth Distance (km) Brightness Sun altitude
Rises 17:01:51 0° 227° (SW) 2,885 11.2 34.8°
Reaches altitude 10° 17:04:21 10° 216° (SW) 1,982 10.4 34.4°
Maximum altitude 17:08:18 29° 156° (SSE) 1,136 8.5 33.8°
Drops below altitude 10° 17:12:16 10° 96° (E) 1,997 9.3 33.2°
Sets 17:14:48 0° 86° (E) 2,911 10.0 32.9°
